Hourly Data Report for July 06, 2021

PRINCE RUPERT
BRITISH COLUMBIA
Current Station Operator: NAVCAN

54°17'10.000" N
130°26'41.000" W
35.40 m
1066482
71022
YPR

Download Data

Hourly Data (July 2021)
Hourly Data Report for July 6, 2021
TIME
LST
Temp Definition
°C
Dew Point Definition
°C
Rel Hum Definition
%
Precip. Amount Definition
mm

Wind Dir Definition
10's deg

Wind Spd Definition
km/h
Visibility Definition
km
Stn Press Definition
kPa
Hmdx Definition


Wind Chill Definition


Weather Definition


00:00 11.5 10.1 91 0.0 26 9 14.5 101.70     LegendNANA
01:00 11.5 10.0 90 0.0 24 9 16.1 101.72     LegendNANA
02:00 11.5 9.9 90 0.0 26 5 16.1 101.72     LegendNANA
03:00 11.5 9.9 90 0.0 24 8 16.1 101.71     LegendNANA
04:00 11.6 10.2 91 0.0 26 5 16.1 101.72     LegendNANA
05:00 11.7 10.3 91 0.0 22 5 16.1 101.69     LegendNANA
06:00 11.9 10.5 91 0.0 LegendMM 4 16.1 101.68     LegendNANA
07:00 12.1 10.4 89 0.0 25 5 16.1 101.68     LegendNANA
08:00 12.5 10.7 89 0.0 24 5 16.1 101.68     LegendNANA
09:00 12.7 10.7 87 0.0 24 5 16.1 101.68     LegendNANA
10:00 12.2 10.6 90 0.0 25 9 9.7 101.68     Fog
11:00 12.4 10.7 89 0.0 25 11 12.9 101.68     LegendNANA
12:00 12.7 11.1 90 0.0 29 11 12.9 101.68     LegendNANA
13:00 12.2 11.0 92 0.0 28 9 4.8 101.68     Fog
14:00 12.4 10.6 88 0.0 29 11 16.1 101.65     LegendNANA
15:00 12.7 10.8 88 0.0 27 9 16.1 101.61     LegendNANA
16:00 12.9 10.6 86 0.0 29 8 16.1 101.57     LegendNANA
17:00 12.9 10.1 83 0.0 27 13 16.1 101.51     LegendNANA
18:00 12.5 10.2 86 0.0 25 8 16.1 101.48     LegendNANA
19:00 12.1 9.9 86 0.0 26 8 16.1 101.45     LegendNANA
20:00 12.1 10.0 87 0.0 26 8 16.1 101.41     LegendNANA
21:00 11.5 9.5 87 0.0 25 8 16.1 101.40     LegendNANA
22:00 11.2 9.5 89 0.0 25 9 16.1 101.38     LegendNANA
23:00 11.2 9.6 90 0.0 25 8 16.1 101.34     LegendNANA

Notes on Data Quality.

Legend

  • E = Estimated
  • M = Missing
  • NA = Not Available*
  • [empty] = Indicates an unobserved value
Date modified: